EGNMENVA

Guest
Details From EGNM - Leeds Bradford
To ENVA - Vaernes
Flight Number -
Tags Generated
Created
Modified
Stats Distance 695 nm / 1,287 km
Max Altitude 0 ft / 0 m
Waypoints 4
Social Downloads 0
Likes 0
Share VATSIM

Download

Looking for another format? Having issues loading an existing format? Contact us
Advertisement - Login to hide

Notes

Generated

Route

EGNM FLE51 R2210 ENVA

ID Type Via Altitude Latitude Longitude Leg Dist Tot Dist Heading (true) Name
O EGNM APT - 0 ft / 0 m 53.87335˚ -1.67205˚ - 0 nm - -
FLE51 FIX - 0 ft / 0 m 60.05374˚ 5.29152˚ 435 nm 435 nm 29° / 35° -
R2210 FIX - 0 ft / 0 m 63.45765˚ 10.89449˚ 258 nm 694 nm 35° / 40° -
O ENVA APT - 0 ft / 0 m 63.46455˚ 10.92316˚ 0 nm 694 nm 62° / 62° Vaernes

Altitude Profile

Advertisement - Login to hide

Weather


0- 5 10 15 20 25 30 35+ Temperature / ° C

Clouds and Precipitation
Forecast for 2018-05-21 12:00 UTC. Updated 29 minutes ago

Ground ~20,000 ft ~40,000 ft Winds

EGNM

Details ICAO EGNM (LBA)
Name Leeds Bradford
Region United Kingdom
Timezone Europe/London (UTC+1.0)
Stats Elevation 681 ft / 208 m (AMSL)
Location 53.866027° -1.660778°
Runways 1
Magnetic Variation 1.230° W

METAR

EGNM 211120Z 09004KT 020V170 9999 FEW004 19/06 Q1018

Decode

TAF

TAF AMD EGNM 210830Z 2108/2206 VRB04KT 0400 FG BKN002 BECMG 2108/2110 9999 NSW FEW030 BECMG 2110/2112 09010KT PROB30 TEMPO 2114/2120 8000 SHRA BECMG 2118/2121 VRB04KT BECMG 2121/2124 6000 PROB40 2202/2206 0200 FG VV///

Decode

Departure Runways

ID Width Length Bearing (true) Bearing (mag) Surface Threshold Offset Overrun Length
14 151 ft / 46 m 7,377 ft / 2,248 m 137.79° 139.02° Concrete 1,024 ft / 312 m 46 ft / 14 m
32 151 ft / 46 m 7,377 ft / 2,248 m 317.81° 319.04° Concrete 899 ft / 274 m 49 ft / 15 m

ENVA

Details ICAO ENVA (TRD)
Name Vaernes
Region Norway
Timezone Europe/Oslo (UTC+2.0)
Stats Elevation 56 ft / 17 m (AMSL)
Location 63.457605° 10.917980°
Runways 1
Magnetic Variation 3.577° E

METAR

ENVA 211120Z 25010KT CAVOK 20/06 Q1021 NOSIG RMK WIND 670FT 30006KT

Decode

TAF

TAF ENVA 210500Z 2106/2206 VRB03KT CAVOK BECMG 2108/2110 27012KT BECMG 2118/2120 VRB03KT

Decode

Destination Runways

ID Width Length Bearing (true) Bearing (mag) Surface Threshold Offset Overrun Length
09 148 ft / 45 m 9,356 ft / 2,852 m 90.21° 86.63° Asphalt 984 ft / 300 m 0 ft / 0 m
27 148 ft / 45 m 9,356 ft / 2,852 m 270.26° 266.68° Asphalt 689 ft / 210 m 0 ft / 0 m

Approach Navaids

Runway Type Ident Frequency Range Bearing (true) Bearing (mag) Slope Elevation
09 Localiser TO 110.30 MHz 18 nm / 33 km 90.26° 86.68° - 31 ft / 9 m (AMSL)
09 Glidescope TO 110.30 MHz 10 nm / 19 km 90.23° 86.65° 3.00° 56 ft / 17 m (AMSL)
09 DME TO 110.30 MHz 18 nm / 33 km - - - 31 ft / 9 m (AMSL)
27 Localiser TD 109.90 MHz 18 nm / 33 km 270.20° 266.62° - 56 ft / 17 m (AMSL)
27 Glidescope TD 109.90 MHz 10 nm / 19 km 270.23° 266.65° 3.40° 56 ft / 17 m (AMSL)
27 DME TD 109.90 MHz 18 nm / 33 km - - - 78 ft / 24 m (AMSL)

Popular Alternatives